QPF
0.00 0.00 0.02 0.03 0.04 0.02 0.02 0.03 0.05 0.04 0.04 0.02 0.01 0.01 0.01 0.01 0.01 0.01 0.04 0.06 0.09 0.12 0.12 0.09 0.06 0.07 0.08 0.09 0.08 0.07 0.06 0.05 0.05 0.04 0.03 0.03 0.03 0.02 0.02 0.02 0.02 0.02 0.04
0.00 0.01 0.02 0.03 0.03 0.02 0.01 0.02 0.04 0.03 0.03 0.03 0.02 0.02 0.01 0.01 0.02 0.02 0.03 0.06 0.08 0.08 0.08 0.08 0.07 0.07 0.09 0.09 0.07 0.08 0.08 0.05 0.03 0.02 0.02 0.02 0.02 0.03 0.02 0.01 0.02 0.03 0.03
0.00 0.01 0.02 0.03 0.03 0.02 0.01 0.01 0.03 0.03 0.03 0.03 0.03 0.03 0.02 0.01 0.02 0.02 0.03 0.06 0.08 0.09 0.09 0.08 0.08 0.09 0.09 0.09 0.09 0.09 0.08 0.05 0.02 0.01 0.01 0.01 0.02 0.02 0.02 0.02 0.02 0.03 0.03
0.01 0.01 0.01 0.03 0.03 0.02 0.01 0.01 0.02 0.03 0.03 0.03 0.03 0.04 0.03 0.02 0.02 0.02 0.02 0.04 0.07 0.08 0.08 0.08 0.08 0.08 0.07 0.07 0.09 0.08 0.06 0.04 0.03 0.02 0.02 0.01 0.02 0.03 0.03 0.02 0.02 0.03 0.03
0.01 0.01 0.01 0.02 0.03 0.03 0.03 0.01 0.01 0.03 0.04 0.04 0.03 0.04 0.04 0.02 0.02 0.02 0.02 0.03 0.09 0.11 0.07 0.10 0.09 0.07 0.06 0.05 0.06 0.08 0.06 0.05 0.03 0.03 0.02 0.01 0.02 0.04 0.03 0.03 0.03 0.03 0.03
0.01 0.01 0.02 0.02 0.04 0.04 0.05 0.03 0.02 0.03 0.04 0.04 0.04 0.04 0.03 0.03 0.03 0.03 0.03 0.03 0.10 0.19 0.15 0.17 0.13 0.09 0.07 0.05 0.06 0.07 0.07 0.06 0.05 0.03 0.02 0.02 0.02 0.04 0.04 0.04 0.03 0.02 0.03
0.01 0.01 0.02 0.02 0.04 0.05 0.06 0.05 0.04 0.04 0.04 0.04 0.04 0.04 0.03 0.03 0.04 0.05 0.05 0.03 0.07 0.19 0.23 0.20 0.14 0.08 0.05 0.03 0.04 0.05 0.06 0.06 0.06 0.04 0.03 0.03 0.03 0.04 0.05 0.05 0.04 0.04 0.04
0.00 0.00 0.01 0.02 0.05 0.06 0.06 0.07 0.07 0.07 0.06 0.05 0.04 0.04 0.04 0.03 0.03 0.04 0.05 0.03 0.04 0.09 0.17 0.17 0.11 0.06 0.02 0.02 0.02 0.03 0.04 0.05 0.05 0.04 0.03 0.03 0.04 0.04 0.05 0.05 0.04 0.04 0.04
0.00 0.00 0.01 0.01 0.02 0.04 0.05 0.07 0.09 0.12 0.11 0.07 0.06 0.05 0.04 0.03 0.03 0.04 0.05 0.05 0.02 0.03 0.07 0.08 0.05 0.02 0.01 0.02 0.01 0.01 0.04 0.06 0.04 0.03 0.02 0.04 0.05 0.05 0.06 0.05 0.04 0.04 0.04
0.01 0.00 0.00 0.01 0.02 0.02 0.03 0.05 0.10 0.14 0.12 0.08 0.07 0.06 0.05 0.04 0.04 0.04 0.05 0.05 0.03 0.02 0.03 0.03 0.03 0.02 0.01 0.01 0.01 0.01 0.03 0.06 0.05 0.03 0.03 0.03 0.05 0.06 0.07 0.05 0.04 0.03 0.03
0.01 0.01 0.00 0.01 0.01 0.02 0.02 0.03 0.07 0.11 0.11 0.10 0.09 0.08 0.07 0.05 0.04 0.05 0.04 0.04 0.03 0.03 0.02 0.03 0.02 0.02 0.01 0.01 0.01 0.01 0.02 0.04 0.04 0.02 0.02 0.04 0.06 0.08 0.07 0.04 0.03 0.03 0.03
0.01 0.01 0.01 0.00 0.01 0.01 0.01 0.03 0.05 0.07 0.08 0.09 0.08 0.06 0.05 0.04 0.04 0.05 0.05 0.04 0.04 0.03 0.03 0.02 0.02 0.02 0.02 0.01 0.01 0.01 0.03 0.04 0.04 0.03 0.02 0.04 0.05 0.08 0.09 0.05 0.04 0.04 0.03
0.01 0.01 0.01 0.01 0.01 0.01 0.01 0.02 0.04 0.05 0.07 0.08 0.07 0.07 0.05 0.04 0.04 0.05 0.05 0.04 0.04 0.04 0.04 0.03 0.02 0.01 0.01 0.01 0.01 0.01 0.02 0.04 0.07 0.05 0.03 0.04 0.05 0.05 0.06 0.06 0.05 0.03 0.03
0.01 0.01 0.02 0.02 0.02 0.01 0.01 0.02 0.03 0.04 0.07 0.10 0.09 0.08 0.06 0.04 0.03 0.04 0.04 0.04 0.04 0.04 0.05 0.04 0.02 0.01 0.01 0.01 0.01 0.02 0.01 0.02 0.06 0.05 0.04 0.03 0.05 0.04 0.04 0.05 0.05 0.04 0.03
0.01 0.02 0.02 0.02 0.02 0.01 0.01 0.01 0.03 0.04 0.06 0.10 0.11 0.08 0.06 0.05 0.04 0.06 0.06 0.04 0.05 0.05 0.05 0.05 0.03 0.01 0.01 0.01 0.01 0.01 0.01 0.02 0.05 0.05 0.04 0.03 0.04 0.04 0.04 0.04 0.04 0.04 0.05
0.01 0.02 0.02 0.02 0.02 0.02 0.01 0.01 0.02 0.03 0.05 0.09 0.10 0.07 0.05 0.05 0.03 0.05 0.08 0.09 0.08 0.06 0.05 0.05 0.04 0.03 0.02 0.01 0.01 0.02 0.01 0.02 0.04 0.05 0.04 0.03 0.03 0.04 0.04 0.05 0.04 0.05 0.05
0.02 0.02 0.02 0.02 0.02 0.02 0.02 0.02 0.03 0.05 0.05 0.08 0.09 0.08 0.05 0.05 0.04 0.04 0.06 0.08 0.10 0.10 0.08 0.06 0.05 0.04 0.03 0.02 0.03 0.03 0.02 0.03 0.04 0.04 0.05 0.03 0.03 0.04 0.04 0.04 0.04 0.05 0.05
0.02 0.03 0.02 0.02 0.03 0.03 0.03 0.03 0.05 0.06 0.07 0.08 0.11 0.09 0.06 0.04 0.04 0.03 0.04 0.06 0.08 0.09 0.09 0.08 0.08 0.07 0.05 0.03 0.03 0.03 0.03 0.04 0.05 0.04 0.04 0.03 0.02 0.02 0.03 0.04 0.04 0.05 0.05
0.01 0.02 0.03 0.03 0.03 0.03 0.03 0.03 0.06 0.07 0.10 0.10 0.12 0.11 0.06 0.03 0.03 0.03 0.03 0.03 0.05 0.08 0.08 0.06 0.05 0.05 0.05 0.04 0.03 0.02 0.03 0.07 0.05 0.04 0.04 0.04 0.02 0.02 0.02 0.03 0.04 0.05 0.05
0.00 0.01 0.03 0.04 0.04 0.03 0.03 0.04 0.06 0.08 0.10 0.13 0.11 0.12 0.08 0.04 0.03 0.03 0.03 0.02 0.03 0.06 0.09 0.08 0.05 0.04 0.03 0.02 0.02 0.02 0.02 0.04 0.07 0.04 0.03 0.03 0.03 0.02 0.02 0.02 0.03 0.04 0.04
0.01 0.01 0.03 0.04 0.04 0.04 0.03 0.03 0.04 0.07 0.09 0.13 0.12 0.11 0.09 0.06 0.04 0.04 0.04 0.02 0.03 0.04 0.07 0.08 0.07 0.05 0.04 0.02 0.02 0.02 0.02 0.03 0.06 0.05 0.03 0.03 0.04 0.04 0.03 0.02 0.03 0.02 0.03
0.00 0.01 0.02 0.03 0.05 0.05 0.03 0.03 0.04 0.07 0.10 0.13 0.14 0.13 0.09 0.06 0.05 0.05 0.05 0.04 0.03 0.03 0.04 0.06 0.07 0.06 0.04 0.03 0.02 0.03 0.03 0.03 0.04 0.05 0.05 0.04 0.04 0.04 0.04 0.04 0.04 0.03 0.02
0.00 0.01 0.01 0.02 0.03 0.04 0.05 0.04 0.04 0.06 0.10 0.14 0.15 0.13 0.10 0.05 0.04 0.04 0.04 0.04 0.04 0.04 0.04 0.04 0.06 0.06 0.05 0.03 0.02 0.02 0.03 0.03 0.03 0.03 0.04 0.05 0.05 0.05 0.05 0.05 0.06 0.06 0.03
0.00 0.00 0.01 0.01 0.02 0.03 0.05 0.05 0.04 0.06 0.09 0.11 0.12 0.11 0.09 0.06 0.05 0.05 0.04 0.04 0.04 0.03 0.04 0.05 0.05 0.06 0.06 0.05 0.04 0.03 0.02 0.03 0.03 0.03 0.03 0.04 0.05 0.05 0.05 0.05 0.07 0.08 0.05
0.01 0.00 0.01 0.01 0.02 0.03 0.04 0.05 0.04 0.05 0.07 0.10 0.11 0.10 0.08 0.05 0.04 0.05 0.05 0.05 0.04 0.04 0.04 0.04 0.04 0.05 0.05 0.05 0.05 0.04 0.03 0.02 0.02 0.03 0.03 0.04 0.05 0.05 0.06 0.06 0.05 0.06 0.05
0.01 0.01 0.00 0.01 0.02 0.03 0.04 0.05 0.05 0.05 0.06 0.08 0.09 0.10 0.08 0.05 0.04 0.04 0.04 0.04 0.04 0.04 0.04 0.04 0.04 0.04 0.04 0.04 0.04 0.04 0.03 0.03 0.02 0.03 0.03 0.02 0.04 0.06 0.06 0.05 0.05 0.04 0.04
MSLP
1015.54 1014.73 1013.87 1013.11 1012.56 1012.28 1012.26 1012.42 1012.70 1012.99 1013.24 1013.43 1013.59 1013.75 1013.95 1014.23 1014.57 1014.95 1015.32 1015.63 1015.87 1016.02 1016.11 1016.18 1016.28 1016.44 1016.67 1016.95 1017.25 1017.54 1017.78 1017.96 1018.09 1018.18 1018.27 1018.38 1018.51 1018.66 1018.82 1018.95 1019.06 1019.13 1019.17
1016.32 1015.44 1014.47 1013.59 1012.93 1012.54 1012.42 1012.52 1012.75 1013.02 1013.28 1013.50 1013.69 1013.89 1014.13 1014.45 1014.82 1015.22 1015.61 1015.94 1016.19 1016.37 1016.48 1016.59 1016.72 1016.91 1017.16 1017.47 1017.79 1018.09 1018.34 1018.54 1018.67 1018.78 1018.88 1019.00 1019.14 1019.31 1019.48 1019.64 1019.76 1019.84 1019.91
1016.91 1015.99 1014.97 1014.03 1013.30 1012.84 1012.65 1012.69 1012.87 1013.11 1013.36 1013.58 1013.78 1014.00 1014.27 1014.61 1015.00 1015.42 1015.82 1016.16 1016.43 1016.63 1016.78 1016.92 1017.09 1017.33 1017.63 1017.97 1018.32 1018.65 1018.92 1019.13 1019.27 1019.38 1019.48 1019.60 1019.76 1019.94 1020.12 1020.30 1020.45 1020.57 1020.66
1017.30 1016.40 1015.40 1014.47 1013.73 1013.25 1013.02 1013.00 1013.12 1013.30 1013.49 1013.68 1013.86 1014.08 1014.36 1014.70 1015.11 1015.54 1015.95 1016.31 1016.60 1016.82 1017.01 1017.19 1017.42 1017.71 1018.07 1018.46 1018.86 1019.22 1019.51 1019.72 1019.87 1019.97 1020.07 1020.18 1020.34 1020.52 1020.73 1020.93 1021.11 1021.26 1021.39
1017.54 1016.71 1015.79 1014.95 1014.26 1013.80 1013.55 1013.47 1013.50 1013.59 1013.69 1013.80 1013.94 1014.13 1014.39 1014.74 1015.16 1015.60 1016.03 1016.41 1016.72 1016.98 1017.21 1017.45 1017.73 1018.09 1018.50 1018.95 1019.40 1019.79 1020.10 1020.32 1020.46 1020.55 1020.63 1020.73 1020.87 1021.06 1021.28 1021.51 1021.73 1021.92 1022.10
1017.66 1016.95 1016.19 1015.48 1014.90 1014.48 1014.22 1014.07 1014.00 1013.96 1013.94 1013.95 1014.01 1014.15 1014.40 1014.75 1015.18 1015.64 1016.10 1016.51 1016.86 1017.15 1017.43 1017.72 1018.06 1018.48 1018.95 1019.45 1019.94 1020.36 1020.69 1020.91 1021.03 1021.10 1021.16 1021.24 1021.37 1021.55 1021.78 1022.04 1022.30 1022.55 1022.77
1017.72 1017.16 1016.59 1016.05 1015.60 1015.24 1014.97 1014.75 1014.56 1014.37 1014.21 1014.09 1014.06 1014.15 1014.38 1014.74 1015.20 1015.71 1016.20 1016.66 1017.04 1017.38 1017.70 1018.04 1018.43 1018.90 1019.42 1019.96 1020.47 1020.91 1021.25 1021.46 1021.58 1021.63 1021.66 1021.72 1021.84 1022.03 1022.27 1022.56 1022.86 1023.15 1023.42
1017.73 1017.34 1016.96 1016.60 1016.28 1015.99 1015.71 1015.41 1015.09 1014.76 1014.45 1014.21 1014.09 1014.14 1014.37 1014.75 1015.25 1015.81 1016.36 1016.86 1017.30 1017.68 1018.04 1018.41 1018.84 1019.34 1019.88 1020.45 1020.98 1021.43 1021.76 1021.98 1022.08 1022.12 1022.14 1022.19 1022.30 1022.50 1022.76 1023.08 1023.42 1023.75 1024.06
1017.71 1017.48 1017.27 1017.07 1016.86 1016.63 1016.33 1015.96 1015.52 1015.05 1014.61 1014.27 1014.09 1014.11 1014.34 1014.76 1015.31 1015.93 1016.54 1017.10 1017.59 1018.01 1018.41 1018.81 1019.27 1019.78 1020.33 1020.90 1021.44 1021.89 1022.22 1022.43 1022.54 1022.57 1022.59 1022.65 1022.77 1022.98 1023.27 1023.62 1024.00 1024.37 1024.71
1017.70 1017.58 1017.49 1017.41 1017.29 1017.08 1016.76 1016.32 1015.79 1015.21 1014.67 1014.25 1014.03 1014.04 1014.29 1014.75 1015.36 1016.03 1016.71 1017.32 1017.86 1018.33 1018.77 1019.20 1019.67 1020.19 1020.74 1021.31 1021.84 1022.28 1022.62 1022.83 1022.95 1022.99 1023.03 1023.10 1023.25 1023.48 1023.80 1024.19 1024.60 1025.00 1025.36
1017.73 1017.66 1017.65 1017.63 1017.54 1017.34 1016.99 1016.49 1015.88 1015.22 1014.61 1014.15 1013.90 1013.91 1014.18 1014.68 1015.33 1016.06 1016.79 1017.47 1018.06 1018.59 1019.06 1019.53 1020.02 1020.54 1021.10 1021.66 1022.18 1022.62 1022.96 1023.18 1023.31 1023.39 1023.45 1023.55 1023.73 1023.99 1024.34 1024.75 1025.19 1025.62 1026.01
1017.86 1017.79 1017.78 1017.76 1017.66 1017.44 1017.05 1016.50 1015.84 1015.13 1014.47 1013.98 1013.71 1013.72 1013.99 1014.51 1015.19 1015.96 1016.74 1017.47 1018.13 1018.72 1019.26 1019.78 1020.30 1020.85 1021.42 1021.97 1022.49 1022.92 1023.27 1023.50 1023.66 1023.76 1023.86 1023.99 1024.19 1024.48 1024.85 1025.29 1025.75 1026.20 1026.61
1018.14 1018.01 1017.95 1017.88 1017.74 1017.47 1017.03 1016.44 1015.73 1014.98 1014.30 1013.77 1013.48 1013.46 1013.72 1014.22 1014.91 1015.70 1016.52 1017.31 1018.04 1018.72 1019.34 1019.94 1020.53 1021.12 1021.71 1022.28 1022.79 1023.23 1023.58 1023.83 1024.01 1024.14 1024.27 1024.43 1024.65 1024.96 1025.34 1025.77 1026.24 1026.70 1027.13
1018.61 1018.39 1018.24 1018.08 1017.86 1017.52 1017.03 1016.39 1015.64 1014.86 1014.13 1013.56 1013.22 1013.14 1013.35 1013.81 1014.47 1015.26 1016.11 1016.97 1017.80 1018.58 1019.32 1020.03 1020.71 1021.37 1022.01 1022.60 1023.13 1023.57 1023.92 1024.19 1024.39 1024.55 1024.70 1024.88 1025.11 1025.41 1025.78 1026.21 1026.67 1027.13 1027.57
1019.26 1018.95 1018.68 1018.43 1018.11 1017.69 1017.13 1016.43 1015.64 1014.80 1014.02 1013.38 1012.95 1012.78 1012.90 1013.28 1013.89 1014.66 1015.55 1016.48 1017.42 1018.34 1019.22 1020.07 1020.87 1021.63 1022.33 1022.96 1023.51 1023.96 1024.33 1024.61 1024.83 1025.00 1025.17 1025.36 1025.59 1025.87 1026.21 1026.60 1027.04 1027.48 1027.92
1020.06 1019.65 1019.28 1018.92 1018.50 1018.00 1017.36 1016.61 1015.74 1014.84 1013.97 1013.22 1012.67 1012.38 1012.37 1012.65 1013.20 1013.95 1014.87 1015.89 1016.95 1018.03 1019.07 1020.08 1021.02 1021.88 1022.66 1023.34 1023.92 1024.40 1024.78 1025.09 1025.33 1025.53 1025.71 1025.90 1026.12 1026.38 1026.67 1027.02 1027.39 1027.80 1028.22
1020.91 1020.42 1019.96 1019.50 1019.00 1018.41 1017.70 1016.87 1015.93 1014.93 1013.95 1013.07 1012.38 1011.94 1011.79 1011.96 1012.43 1013.17 1014.13 1015.24 1016.44 1017.67 1018.89 1020.06 1021.14 1022.11 1022.97 1023.70 1024.32 1024.83 1025.25 1025.59 1025.86 1026.10 1026.32 1026.52 1026.74 1026.96 1027.21 1027.49 1027.80 1028.15 1028.52
1021.68 1021.14 1020.61 1020.08 1019.51 1018.85 1018.07 1017.15 1016.12 1015.01 1013.90 1012.88 1012.03 1011.44 1011.16 1011.23 1011.64 1012.37 1013.38 1014.58 1015.91 1017.29 1018.67 1019.98 1021.18 1022.26 1023.19 1023.98 1024.64 1025.20 1025.67 1026.06 1026.40 1026.70 1026.98 1027.22 1027.44 1027.65 1027.85 1028.06 1028.30 1028.56 1028.87
1022.28 1021.70 1021.13 1020.55 1019.92 1019.20 1018.35 1017.36 1016.23 1015.01 1013.77 1012.60 1011.62 1010.89 1010.50 1010.48 1010.85 1011.58 1012.64 1013.93 1015.37 1016.88 1018.38 1019.81 1021.11 1022.26 1023.25 1024.09 1024.81 1025.42 1025.96 1026.44 1026.88 1027.28 1027.64 1027.95 1028.21 1028.42 1028.60 1028.75 1028.91 1029.08 1029.30
1022.65 1022.04 1021.44 1020.83 1020.16 1019.39 1018.48 1017.41 1016.18 1014.86 1013.51 1012.22 1011.11 1010.28 1009.80 1009.74 1010.09 1010.83 1011.94 1013.30 1014.83 1016.43 1018.01 1019.51 1020.87 1022.06 1023.09 1023.98 1024.75 1025.44 1026.07 1026.67 1027.23 1027.76 1028.24 1028.66 1028.99 1029.24 1029.42 1029.53 1029.61 1029.70 1029.82
1022.78 1022.15 1021.52 1020.88 1020.18 1019.37 1018.40 1017.27 1015.96 1014.55 1013.10 1011.72 1010.53 1009.63 1009.11 1009.02 1009.37 1010.14 1011.29 1012.70 1014.28 1015.92 1017.54 1019.06 1020.43 1021.64 1022.69 1023.62 1024.44 1025.21 1025.96 1026.69 1027.41 1028.10 1028.73 1029.28 1029.72 1030.03 1030.23 1030.34 1030.37 1030.38 1030.40
1022.73 1022.06 1021.41 1020.74 1020.01 1019.16 1018.14 1016.95 1015.58 1014.09 1012.57 1011.13 1009.90 1008.97 1008.43 1008.34 1008.72 1009.52 1010.69 1012.13 1013.72 1015.37 1016.97 1018.47 1019.83 1021.02 1022.07 1023.02 1023.90 1024.76 1025.62 1026.49 1027.37 1028.23 1029.03 1029.73 1030.30 1030.71 1030.97 1031.09 1031.10 1031.05 1031.00
1022.58 1021.86 1021.18 1020.48 1019.71 1018.82 1017.76 1016.51 1015.08 1013.54 1011.98 1010.51 1009.26 1008.32 1007.80 1007.74 1008.14 1008.97 1010.16 1011.59 1013.17 1014.78 1016.34 1017.79 1019.10 1020.26 1021.29 1022.26 1023.18 1024.12 1025.10 1026.11 1027.14 1028.17 1029.13 1029.98 1030.68 1031.20 1031.54 1031.70 1031.72 1031.66 1031.56
1022.43 1021.66 1020.92 1020.18 1019.37 1018.44 1017.33 1016.03 1014.56 1012.98 1011.39 1009.90 1008.65 1007.74 1007.25 1007.22 1007.64 1008.49 1009.68 1011.10 1012.63 1014.19 1015.69 1017.07 1018.32 1019.44 1020.46 1021.43 1022.40 1023.40 1024.47 1025.59 1026.76 1027.91 1029.02 1030.00 1030.83 1031.46 1031.88 1032.11 1032.18 1032.14 1032.03
1022.34 1021.51 1020.72 1019.93 1019.07 1018.08 1016.92 1015.57 1014.06 1012.45 1010.84 1009.35 1008.11 1007.22 1006.75 1006.75 1007.21 1008.06 1009.25 1010.64 1012.14 1013.64 1015.07 1016.39 1017.59 1018.67 1019.67 1020.65 1021.65 1022.70 1023.83 1025.03 1026.29 1027.54 1028.74 1029.83 1030.76 1031.49 1032.01 1032.32 1032.46 1032.46 1032.39
1022.36 1021.46 1020.61 1019.75 1018.83 1017.79 1016.58 1015.18 1013.63 1011.99 1010.36 1008.86 1007.63 1006.75 1006.31 1006.34 1006.81 1007.67 1008.85 1010.22 1011.68 1013.14 1014.53 1015.80 1016.96 1018.02 1019.02 1020.00 1021.02 1022.10 1023.27 1024.51 1025.81 1027.11 1028.37 1029.52 1030.52 1031.33 1031.94 1032.34 1032.56 1032.64 1032.63
Thickness
5689 5691 5692 5693 5695 5696 5697 5698 5699 5700 5700 5701 5701 5702 5702 5703 5703 5704 5704 5704 5705 5707 5707 5707 5707 5707 5707 5707 5707 5707 5708 5708 5708 5708 5708 5708 5708 5708 5708 5708 5708 5708 5708
5689 5689 5689 5691 5692 5693 5694 5695 5695 5696 5696 5697 5698 5698 5698 5699 5700 5700 5700 5700 5701 5702 5702 5702 5703 5703 5703 5703 5703 5703 5703 5703 5703 5703 5704 5704 5704 5704 5704 5704 5704 5704 5703
5686 5686 5686 5687 5688 5689 5690 5690 5691 5692 5692 5693 5693 5694 5694 5695 5696 5696 5696 5696 5697 5697 5697 5697 5698 5698 5698 5699 5698 5698 5698 5698 5699 5699 5699 5699 5699 5700 5700 5700 5700 5700 5699
5682 5682 5682 5683 5684 5685 5686 5686 5687 5687 5688 5688 5689 5690 5690 5690 5691 5691 5692 5691 5691 5691 5691 5692 5692 5693 5693 5694 5694 5693 5694 5694 5694 5695 5695 5695 5696 5696 5696 5696 5696 5695 5695
5678 5678 5678 5679 5680 5681 5681 5682 5683 5683 5683 5684 5684 5685 5685 5685 5686 5686 5686 5686 5686 5687 5687 5688 5688 5687 5688 5689 5689 5689 5689 5689 5690 5690 5691 5691 5691 5692 5692 5692 5691 5691 5691
5673 5674 5674 5674 5675 5676 5676 5677 5678 5678 5679 5679 5679 5680 5680 5680 5680 5680 5680 5681 5681 5683 5684 5684 5683 5682 5682 5683 5684 5684 5684 5685 5685 5685 5686 5686 5687 5687 5687 5687 5687 5686 5686
5668 5668 5669 5669 5670 5671 5671 5672 5673 5673 5674 5674 5674 5674 5675 5675 5675 5675 5675 5675 5676 5677 5679 5679 5677 5677 5677 5678 5679 5679 5679 5680 5680 5680 5681 5681 5682 5682 5682 5682 5682 5682 5681
5663 5663 5663 5664 5665 5665 5666 5666 5667 5668 5668 5668 5669 5669 5669 5669 5669 5669 5669 5669 5670 5670 5671 5671 5671 5671 5671 5672 5672 5672 5673 5674 5675 5675 5675 5676 5676 5677 5677 5677 5677 5677 5676
5657 5657 5657 5658 5658 5659 5660 5661 5661 5662 5662 5662 5662 5663 5663 5663 5663 5663 5663 5663 5663 5664 5663 5664 5664 5665 5665 5666 5666 5666 5667 5668 5669 5670 5670 5670 5671 5671 5672 5671 5671 5671 5671
5650 5650 5651 5651 5652 5653 5653 5654 5655 5655 5655 5655 5656 5656 5656 5656 5656 5656 5656 5657 5657 5657 5657 5657 5657 5658 5659 5659 5659 5660 5660 5661 5662 5664 5664 5664 5665 5666 5666 5666 5665 5665 5665
5642 5643 5644 5645 5645 5646 5647 5647 5648 5649 5649 5649 5649 5649 5649 5649 5649 5649 5649 5649 5649 5650 5650 5650 5650 5651 5651 5651 5652 5653 5654 5654 5656 5657 5658 5658 5659 5660 5660 5660 5660 5660 5659
5634 5636 5637 5638 5638 5639 5640 5640 5641 5641 5642 5642 5642 5642 5642 5642 5641 5641 5641 5642 5642 5642 5642 5642 5642 5642 5643 5643 5644 5645 5646 5647 5648 5650 5651 5652 5653 5654 5654 5654 5654 5654 5653
5628 5628 5629 5630 5631 5632 5632 5633 5633 5634 5634 5635 5635 5635 5634 5634 5634 5634 5633 5633 5634 5634 5634 5634 5634 5634 5634 5635 5636 5637 5639 5640 5641 5642 5643 5645 5646 5647 5647 5647 5647 5647 5647
5620 5621 5622 5623 5623 5624 5625 5625 5626 5626 5627 5627 5628 5628 5627 5627 5626 5626 5626 5625 5626 5626 5626 5626 5625 5626 5626 5627 5628 5629 5631 5632 5633 5635 5636 5638 5639 5640 5640 5640 5641 5641 5641
5613 5613 5614 5614 5615 5616 5617 5617 5618 5619 5619 5620 5620 5620 5620 5620 5619 5618 5618 5618 5618 5618 5618 5617 5617 5617 5618 5618 5619 5620 5622 5624 5625 5627 5629 5630 5631 5633 5633 5634 5634 5635 5635
5605 5606 5606 5607 5607 5608 5609 5610 5611 5611 5612 5612 5612 5613 5613 5612 5611 5610 5610 5609 5609 5609 5609 5608 5608 5608 5608 5609 5610 5611 5613 5615 5617 5619 5620 5622 5624 5625 5626 5627 5627 5628 5628
5597 5598 5599 5600 5600 5601 5601 5602 5603 5603 5604 5604 5604 5604 5604 5603 5603 5603 5601 5601 5600 5600 5600 5599 5599 5599 5599 5600 5600 5602 5604 5605 5607 5609 5612 5614 5615 5616 5618 5619 5619 5620 5621
5589 5590 5591 5591 5591 5592 5593 5594 5594 5595 5595 5596 5596 5595 5596 5595 5595 5594 5593 5592 5592 5591 5591 5590 5589 5588 5589 5589 5590 5592 5594 5596 5598 5600 5602 5604 5606 5608 5609 5610 5611 5612 5612
5582 5582 5582 5582 5583 5583 5584 5584 5585 5586 5586 5587 5587 5587 5587 5587 5587 5586 5584 5583 5583 5582 5582 5582 5580 5580 5579 5579 5580 5582 5584 5586 5589 5591 5593 5595 5597 5599 5600 5601 5602 5603 5604
5573 5573 5574 5574 5574 5574 5575 5575 5576 5577 5577 5577 5578 5578 5578 5578 5578 5577 5575 5574 5574 5573 5572 5572 5571 5570 5570 5569 5570 5571 5573 5576 5579 5582 5584 5586 5587 5589 5591 5592 5593 5593 5594
5564 5564 5565 5565 5565 5565 5565 5566 5567 5568 5568 5568 5569 5569 5569 5568 5568 5568 5567 5565 5565 5564 5563 5562 5562 5560 5559 5559 5560 5560 5563 5566 5569 5571 5574 5576 5578 5580 5582 5583 5584 5584 5585
5555 5555 5556 5556 5556 5556 5557 5558 5559 5559 5559 5560 5559 5558 5559 5559 5559 5558 5558 5557 5555 5554 5553 5553 5552 5550 5550 5551 5551 5550 5552 5554 5558 5561 5563 5566 5568 5570 5572 5573 5574 5575 5576
5546 5546 5548 5547 5547 5547 5548 5548 5549 5548 5548 5548 5548 5548 5549 5550 5549 5549 5548 5548 5546 5545 5544 5544 5544 5543 5541 5540 5542 5543 5542 5545 5545 5548 5552 5554 5557 5560 5562 5563 5565 5566 5567
5537 5536 5537 5538 5538 5537 5538 5538 5538 5538 5538 5539 5538 5538 5539 5539 5540 5540 5539 5538 5537 5536 5535 5534 5535 5534 5533 5532 5531 5533 5534 5536 5535 5537 5540 5543 5545 5548 5551 5553 5555 5556 5558
5527 5527 5527 5526 5527 5527 5527 5527 5527 5527 5528 5528 5528 5528 5528 5528 5529 5529 5529 5528 5527 5526 5526 5525 5525 5524 5524 5524 5523 5523 5524 5523 5526 5527 5529 5531 5533 5537 5540 5542 5544 5546 5548
5516 5515 5515 5515 5515 5515 5515 5516 5516 5516 5516 5516 5517 5517 5518 5518 5518 5519 5518 5518 5518 5517 5517 5516 5516 5515 5515 5515 5515 5515 5515 5515 5516 5516 5518 5519 5522 5525 5528 5531 5534 5537 5538